Voltar ao catálogo

FENGYUN 1C DEB

AtivoSSO
NORAD 31262·DEBRIS·🇨🇳 China

Lançado May 10, 1999 de Taiyuan Satellite Launch Center

Loading…

Próximas Passagens (próximas 24 horas)

TLE

AtualizadoSource: Space-Track

Época: Sep 14, 2026, 05:16 UTC

1 31262U 99025BMU 26257.21997983  .00002055  00000-0  97726-3 0  9995
2 31262  98.9955 349.8083 0053100  33.1841 356.2750 14.19809010996167

Acompanhe FENGYUN 1C DEB em tempo real com AllMySat

Download on the App Store